THY3ZA LTFM-EDDB

Flight info

Callsign THY3ZA
Flight time N/A
Altitude 40000
Route IBLAX1D/35L IBLAX P727 BGS L622 GONGO DCT KOMAN DCT MEGIK DCT ABULI DCT BABKO DCT DIMEX DCT GOVEN T205 NUKRO NUKRO1L
Aircraft A332/H-SDE3GHIJ2J3J5M1RVWXY/LB2D1

Departure

Time N/A
Airport İstanbul Airport (LTFM)

Arrival

Time 2026-05-03 20:15
Airport Berlin Brandenburg Airport (EDDB)
Time Latitude Longitude Altitude Speed Heading
2026-05-03 20:15 52.35306 13.49225 158 ft 9 kts 341°
2026-05-03 20:15 52.35389 13.49182 158 ft 13 kts 348°
2026-05-03 20:15 52.35449 13.49214 158 ft 5 kts 48°
2026-05-03 20:15 52.35456 13.49281 158 ft 10 kts 77°
2026-05-03 20:16 52.35488 13.49428 158 ft 18 kts 67°
2026-05-03 20:16 52.35543 13.49653 158 ft 22 kts 69°
2026-05-03 20:16 52.35599 13.49888 158 ft 22 kts 69°
2026-05-03 20:16 52.35654 13.50128 158 ft 23 kts 72°
2026-05-03 20:17 52.35711 13.50370 158 ft 24 kts 65°
2026-05-03 20:17 52.35750 13.50529 158 ft 10 kts 69°
2026-05-03 20:17 52.35754 13.50543 158 ft 0 kts 69°
2026-05-03 20:20 52.35755 13.50548 158 ft 2 kts 69°
2026-05-03 20:20 52.35762 13.50581 158 ft 4 kts 71°
2026-05-03 20:20 52.35774 13.50618 158 ft 3 kts 51°
2026-05-03 20:21 52.35792 13.50637 158 ft 3 kts 26°
2026-05-03 20:21 52.35814 13.50645 158 ft 3 kts
2026-05-03 20:21 52.35849 13.50645 158 ft 7 kts
2026-05-03 20:21 52.35914 13.50647 158 ft 11 kts 350°
2026-05-03 20:22 52.35993 13.50605 158 ft 12 kts 339°
2026-05-03 20:22 52.36068 13.50559 158 ft 11 kts 340°
2026-05-03 20:22 52.36138 13.50513 158 ft 11 kts 338°
2026-05-03 20:22 52.36213 13.50464 158 ft 12 kts 339°
2026-05-03 20:23 52.36267 13.50491 158 ft 6 kts 53°
2026-05-03 20:23 52.36288 13.50561 158 ft 7 kts 69°
2026-05-03 20:23 52.36302 13.50624 158 ft 3 kts 67°
2026-05-03 20:23 52.36303 13.50627 158 ft 0 kts 66°
2026-05-03 20:24 52.36307 13.50644 158 ft 0 kts 67°